This is the latest recevied weather packets stored in our database for station/object OK1KZE-6. If no packets are shown the sender has not sent any weather packets the latest 10 day(s).
| Time | Temp. | Humidity | Pressure | Rain* | Wind** | Luminosity | Snow |
|---|---|---|---|---|---|---|---|
| 1777863908 | 15.56° C | 52% | 1015 hPa | - | - | - | - |
| 1777863608 | 15.56° C | 51% | 1015.2 hPa | - | - | - | - |
| 1777863308 | 15.56° C | 51% | 1015.3 hPa | - | - | - | - |
| 1777863008 | 15° C | 53% | 1015 hPa | - | - | - | - |
| 1777862707 | 15° C | 52% | 1015.3 hPa | - | - | - | - |
| 1777862407 | 14.44° C | 53% | 1015 hPa | - | - | - | - |
| 1777862108 | 14.44° C | 54% | 1015.1 hPa | - | - | - | - |
| 1777861808 | 15° C | 53% | 1015.2 hPa | - | - | - | - |
| 1777861506 | 15° C | 53% | 1015.5 hPa | - | - | - | - |
| 1777861208 | 15° C | 53% | 1015 hPa | - | - | - | - |
| 1777860908 | 15° C | 53% | 1015.1 hPa | - | - | - | - |
| 1777860607 | 15° C | 52% | 1014.9 hPa | - | - | - | - |
| 1777860308 | 14.44° C | 55% | 1015 hPa | - | - | - | - |
| 1777860008 | 15° C | 53% | 1015.2 hPa | - | - | - | - |
| 1777859707 | 15° C | 52% | 1015.1 hPa | - | - | - | - |
| 1777859408 | 15.56° C | 51% | 1014.8 hPa | - | - | - | - |
| 1777859108 | 16.11° C | 49% | 1015 hPa | - | - | - | - |
| 1777858807 | 16.11° C | 49% | 1015 hPa | - | - | - | - |
| 1777858507 | 16.11° C | 49% | 1015 hPa | - | - | - | - |
| 1777858207 | 16.11° C | 50% | 1015.1 hPa | - | - | - | - |
| 1777857907 | 16.11° C | 50% | 1015.2 hPa | - | - | - | - |
| 1777857607 | 16.11° C | 49% | 1015.2 hPa | - | - | - | - |
| 1777857308 | 16.11° C | 50% | 1015.2 hPa | - | - | - | - |
| 1777857009 | 16.11° C | 50% | 1015.1 hPa | - | - | - | - |
| 1777856707 | 15.56° C | 50% | 1015.2 hPa | - | - | - | - |
* Rain since midnight (hover to see other rain measurements)
** Current wind speed in m/s (hover to see current wind gust speed)